sat.trackr.live / text

‹ back to catalog

STARLINK-11341 [DTC]

NORAD 61696 · 2024-195K

PAYLOAD ACTIVE UNKNOWN

§ Identity

Operator
Country
US
Launch date
2024-10-30
Launch site
AFWTR
Launch vehicle
Mass (kg)
RCS (m²)

Purposes: comms

External: N2YO · Heavens-Above · Gunter

§ Orbital elements

Epoch: 2026-05-24T21:19:11.853696Z

Period
91.74 min
Inclination
53.1589°
Eccentricity
0.0000900
Mean motion
15.69710897 rev/d
Perigee alt
359.1 km
Apogee alt
360.3 km
Semi-major
6,737.9 km
B*
5.9288e-6
RAAN
10.4675°
Arg perigee
114.0565°
Mean anomaly
246.0547°
Rev number
9,100

§ Raw data

STARLINK-11341 [DTC]1 61696U 24195K   26144.88833164  .00000130  00000+0  59288-5 0  99972 61696  53.1589  10.4675 0000900 114.0565 246.0547 15.69710897 91006

JSON: /api/v1/satellites/61696 · /tle

For live sub-satellite position, see the globe view (requires WebGL).

§ Visibility from observer

Set your observer location to see the next 7 days of passes ≥ 10°. The values pass through the URL so the page stays shareable.

No JS? Fill the form by hand. The geolocation button needs JavaScript.